{"data":{"norad_id":66889,"intl_designator":"2025-283M","name":"STARLINK-35852","alt_names":[],"object_type":"PAYLOAD","status":"ACTIVE","operator":null,"country":"US","launch_date":"2025-12-04","launch_site_code":"AFWTR","launch_vehicle":null,"mission":null,"orbit_class":"UNKNOWN","rcs_meters":null,"size_class":null,"mass_kg":null,"dimensions":null,"purposes":["comms"],"wikipedia_slug":null,"has_3d_model":false,"image_url":null,"decayed_at":null,"tle_current":{"epoch":"2026-09-20T10:31:48.612576Z","epoch_age_seconds":89617,"freshness":"FRESH","line1":"1 66889U 25283M   26263.43875709  .00011769  00000+0  35908-3 0  9990","line2":"2 66889  53.1589 195.8560 0002560  27.0002 333.1134 15.34385515 45713","mean_motion":15.34385515,"eccentricity":0.000256,"inclination_deg":53.1589,"raan_deg":195.856,"arg_perigee_deg":27.0002,"mean_anomaly_deg":333.1134,"bstar":0.00035908,"rev_number":4571,"period_min":93.848644028681,"perigee_km":460.99502689536,"apogee_km":464.49755914138,"semimajor_km":6840.8832930184,"source":"CELESTRAK","updated_at":"2026-09-21T09:00:36.034206Z"}}}